JA86GR RJTT-RJTH

Flight info

Callsign JA86GR
Flight time 0h 40m
Altitude 16000
Route VAMOS XAC/N0420F150 V18 HCE
Aircraft HDJT/L-SABDGRWY/H

Departure

Time 2026-05-08 03:54
Airport Tokyo Haneda International Airport (RJTT)

Arrival

Time 2026-05-08 04:34
Airport Hachijojima Airport (RJTH)
Time Latitude Longitude Altitude Speed Heading
2026-05-08 03:31 35.56412 139.78038 48 ft 0 kts 330°
2026-05-08 03:48 35.56393 139.78052 20 ft 4 kts 330°
2026-05-08 03:48 35.56368 139.78069 20 ft 4 kts 330°
2026-05-08 03:48 35.56344 139.78088 19 ft 4 kts 313°
2026-05-08 03:48 35.56337 139.78120 20 ft 4 kts 282°
2026-05-08 03:49 35.56334 139.78148 20 ft 0 kts 240°
2026-05-08 03:49 35.56333 139.78146 20 ft 3 kts 238°
2026-05-08 03:50 35.56296 139.78072 20 ft 12 kts 238°
2026-05-08 03:50 35.56259 139.77992 20 ft 11 kts 240°
2026-05-08 03:50 35.56220 139.77910 20 ft 12 kts 238°
2026-05-08 03:50 35.56182 139.77829 20 ft 9 kts 239°
2026-05-08 03:51 35.56149 139.77760 19 ft 12 kts 240°
2026-05-08 03:51 35.56098 139.77652 19 ft 17 kts 241°
2026-05-08 03:51 35.56028 139.77507 18 ft 21 kts 238°
2026-05-08 03:51 35.55962 139.77365 19 ft 16 kts 240°
2026-05-08 03:52 35.55907 139.77264 20 ft 12 kts 224°
2026-05-08 03:52 35.55845 139.77211 18 ft 10 kts 212°
2026-05-08 03:52 35.55796 139.77167 17 ft 7 kts 216°
2026-05-08 03:52 35.55775 139.77149 18 ft 0 kts 216°
2026-05-08 03:53 35.55726 139.77120 20 ft 18 kts 187°
2026-05-08 03:53 35.55478 139.77267 18 ft 72 kts 149°
2026-05-08 03:53 35.54863 139.77716 116 ft 122 kts 153°
2026-05-08 03:54 35.54111 139.78331 645 ft 146 kts 150°
2026-05-08 03:54 35.53169 139.78972 967 ft 168 kts 159°
2026-05-08 03:54 35.52053 139.79694 1288 ft 192 kts 155°
2026-05-08 03:54 35.50880 139.80534 2145 ft 196 kts 156°
2026-05-08 03:55 35.49662 139.81396 2920 ft 210 kts 156°
2026-05-08 03:55 35.48375 139.82308 3736 ft 216 kts 156°
2026-05-08 03:55 35.47071 139.83238 4622 ft 221 kts 156°
2026-05-08 03:55 35.45722 139.84191 5497 ft 223 kts 157°
2026-05-08 03:56 35.44269 139.84748 6328 ft 215 kts 187°
2026-05-08 03:56 35.42913 139.84204 7220 ft 203 kts 217°
2026-05-08 03:56 35.41756 139.83221 8079 ft 205 kts 216°
2026-05-08 03:56 35.40484 139.82376 8911 ft 212 kts 211°
2026-05-08 03:57 35.39084 139.81554 8977 ft 237 kts 210°
2026-05-08 03:57 35.37545 139.80667 8983 ft 254 kts 210°
2026-05-08 03:57 35.35962 139.79720 8984 ft 254 kts 211°
2026-05-08 03:57 35.34360 139.78743 8995 ft 257 kts 210°
2026-05-08 03:58 35.32798 139.77829 10125 ft 235 kts 210°
2026-05-08 03:58 35.31431 139.77087 11489 ft 213 kts 204°
2026-05-08 03:58 35.29933 139.76813 12325 ft 226 kts 189°
2026-05-08 03:58 35.28340 139.76882 13090 ft 229 kts 188°
2026-05-08 03:59 35.26758 139.76912 13822 ft 230 kts 189°
2026-05-08 03:59 35.25144 139.76945 14526 ft 231 kts 189°
2026-05-08 03:59 35.23524 139.76988 15216 ft 233 kts 188°
2026-05-08 03:59 35.21919 139.77030 15889 ft 235 kts 189°
2026-05-08 04:00 35.20203 139.77060 15990 ft 258 kts 188°
2026-05-08 04:00 35.18321 139.77101 16013 ft 282 kts 187°
2026-05-08 04:00 35.16984 139.77141 16008 ft 296 kts 187°
2026-05-08 04:00 35.14864 139.77203 16006 ft 312 kts 186°
2026-05-08 04:01 35.11962 139.77284 16008 ft 312 kts 186°
2026-05-08 04:01 35.10491 139.77326 16005 ft 312 kts 187°
2026-05-08 04:01 35.08337 139.77375 16003 ft 312 kts 187°
2026-05-08 04:01 35.06160 139.77428 16002 ft 312 kts 186°
2026-05-08 04:02 35.04005 139.77488 16004 ft 311 kts 187°
2026-05-08 04:02 35.01829 139.77541 16005 ft 311 kts 187°
2026-05-08 04:02 34.99677 139.77592 16007 ft 311 kts 187°
2026-05-08 04:02 34.97502 139.77652 16003 ft 312 kts 187°
2026-05-08 04:03 34.95319 139.77706 16008 ft 313 kts 187°
2026-05-08 04:03 34.90981 139.77815 16003 ft 312 kts 187°
2026-05-08 04:03 34.88800 139.77873 16001 ft 312 kts 187°
2026-05-08 04:04 34.86620 139.77923 16003 ft 313 kts 187°
2026-05-08 04:04 34.84467 139.77978 16001 ft 313 kts 187°
2026-05-08 04:04 34.82296 139.78037 16001 ft 312 kts 187°
2026-05-08 04:04 34.80117 139.78088 16005 ft 312 kts 187°
2026-05-08 04:05 34.77936 139.78143 16003 ft 313 kts 187°
2026-05-08 04:05 34.75749 139.78201 16015 ft 313 kts 187°
2026-05-08 04:05 34.73597 139.78251 16003 ft 313 kts 187°
2026-05-08 04:05 34.71408 139.78306 16011 ft 313 kts 187°
2026-05-08 04:06 34.69217 139.78365 16010 ft 314 kts 187°
2026-05-08 04:06 34.67050 139.78416 16006 ft 314 kts 187°
2026-05-08 04:06 34.64856 139.78471 16012 ft 313 kts 187°
2026-05-08 04:06 34.62698 139.78529 16012 ft 313 kts 187°
2026-05-08 04:07 34.60513 139.78580 16010 ft 313 kts 187°
2026-05-08 04:07 34.58322 139.78635 16012 ft 314 kts 187°
2026-05-08 04:07 34.56162 139.78693 16010 ft 313 kts 187°
2026-05-08 04:07 34.53969 139.78744 16018 ft 313 kts 187°
2026-05-08 04:08 34.51780 139.78798 16016 ft 314 kts 187°
2026-05-08 04:08 34.49618 139.78854 16016 ft 314 kts 187°
2026-05-08 04:08 34.47420 139.78907 16020 ft 314 kts 187°
2026-05-08 04:08 34.45253 139.78963 16021 ft 313 kts 187°
2026-05-08 04:09 34.43062 139.79018 16023 ft 314 kts 187°
2026-05-08 04:09 34.40894 139.79070 16021 ft 314 kts 187°
2026-05-08 04:09 34.38696 139.79127 16022 ft 314 kts 187°
2026-05-08 04:09 34.36529 139.79180 16028 ft 314 kts 187°
2026-05-08 04:10 34.34331 139.79230 16026 ft 315 kts 187°
2026-05-08 04:10 34.32162 139.79290 16022 ft 315 kts 187°
2026-05-08 04:10 34.29962 139.79345 16026 ft 314 kts 187°
2026-05-08 04:10 34.27763 139.79395 16031 ft 314 kts 187°
2026-05-08 04:11 34.25602 139.79452 16025 ft 315 kts 187°
2026-05-08 04:11 34.23408 139.79506 16029 ft 315 kts 187°
2026-05-08 04:11 34.21202 139.79559 16028 ft 315 kts 187°
2026-05-08 04:11 34.19005 139.79616 16033 ft 316 kts 187°
2026-05-08 04:12 34.16824 139.79670 16030 ft 316 kts 187°
2026-05-08 04:12 34.14618 139.79721 16031 ft 316 kts 187°
2026-05-08 04:12 34.12412 139.79779 16033 ft 316 kts 187°
2026-05-08 04:12 34.10265 139.79833 16032 ft 316 kts 187°
2026-05-08 04:13 34.08058 139.79884 16037 ft 317 kts 187°
2026-05-08 04:13 34.05838 139.79941 16034 ft 318 kts 186°
2026-05-08 04:13 34.03747 139.80003 16027 ft 297 kts 187°
2026-05-08 04:13 34.01730 139.80062 15402 ft 284 kts 187°
2026-05-08 04:14 33.99851 139.80096 15173 ft 261 kts 187°
2026-05-08 04:14 33.98104 139.80143 15093 ft 239 kts 188°
2026-05-08 04:14 33.96469 139.80178 14461 ft 238 kts 188°
2026-05-08 04:14 33.94799 139.80208 13851 ft 238 kts 187°
2026-05-08 04:15 33.93138 139.80252 13216 ft 238 kts 187°
2026-05-08 04:15 33.91503 139.80295 12604 ft 235 kts 187°
2026-05-08 04:15 33.89867 139.80336 11994 ft 233 kts 187°
2026-05-08 04:15 33.88262 139.80374 11404 ft 231 kts 186°
2026-05-08 04:16 33.86654 139.80414 10832 ft 229 kts 186°
2026-05-08 04:16 33.85063 139.80453 10275 ft 227 kts 186°
2026-05-08 04:16 33.83506 139.80492 9726 ft 225 kts 186°
2026-05-08 04:16 33.81938 139.80530 9114 ft 223 kts 186°
2026-05-08 04:17 33.80387 139.80569 8530 ft 221 kts 186°
2026-05-08 04:17 33.78874 139.80606 7965 ft 219 kts 186°
2026-05-08 04:17 33.77341 139.80643 7376 ft 219 kts 186°
2026-05-08 04:17 33.75839 139.80680 6831 ft 217 kts 186°
2026-05-08 04:18 33.74331 139.80717 6303 ft 215 kts 185°
2026-05-08 04:18 33.72835 139.80755 5747 ft 214 kts 186°
2026-05-08 04:18 33.71350 139.80787 5321 ft 219 kts 186°
2026-05-08 04:18 33.69853 139.80827 5307 ft 213 kts 185°
2026-05-08 04:19 33.68374 139.80863 5312 ft 212 kts 186°
2026-05-08 04:19 33.66911 139.80899 5311 ft 212 kts 185°
2026-05-08 04:19 33.65433 139.80934 5306 ft 212 kts 186°
2026-05-08 04:19 33.63968 139.80970 5307 ft 212 kts 185°
2026-05-08 04:20 33.62486 139.81006 5299 ft 212 kts 185°
2026-05-08 04:20 33.61003 139.81043 5311 ft 212 kts 185°
2026-05-08 04:20 33.59543 139.81079 5300 ft 212 kts 185°
2026-05-08 04:20 33.58089 139.81113 5301 ft 212 kts 185°
2026-05-08 04:21 33.56635 139.81149 5308 ft 212 kts 185°
2026-05-08 04:21 33.55174 139.81186 5274 ft 213 kts 185°
2026-05-08 04:21 33.53679 139.81221 5080 ft 213 kts 185°
2026-05-08 04:21 33.52221 139.81206 5007 ft 206 kts 189°
2026-05-08 04:22 33.50789 139.81110 5007 ft 208 kts 189°
2026-05-08 04:22 33.49338 139.81026 5013 ft 209 kts 189°
2026-05-08 04:22 33.48372 139.80972 5013 ft 209 kts 189°
2026-05-08 04:22 33.48353 139.80971 5009 ft 209 kts 189°
2026-05-08 04:23 33.47077 139.80899 5010 ft 209 kts 189°
2026-05-08 04:23 33.45637 139.80818 5010 ft 209 kts 189°
2026-05-08 04:23 33.44181 139.80737 5009 ft 209 kts 189°
2026-05-08 04:23 33.42743 139.80654 5007 ft 209 kts 189°
2026-05-08 04:24 33.41281 139.80573 5005 ft 209 kts 189°
2026-05-08 04:24 33.39843 139.80494 5004 ft 209 kts 189°
2026-05-08 04:24 33.38380 139.80409 5008 ft 209 kts 189°
2026-05-08 04:24 33.36933 139.80456 5013 ft 216 kts 173°
2026-05-08 04:25 33.35583 139.81386 5007 ft 232 kts 146°
2026-05-08 04:25 33.34383 139.82691 4936 ft 230 kts 149°
2026-05-08 04:25 33.33070 139.83692 4832 ft 223 kts 161°
2026-05-08 04:25 33.31677 139.84496 4704 ft 221 kts 162°
2026-05-08 04:26 33.30304 139.85345 4561 ft 222 kts 159°
2026-05-08 04:26 33.29016 139.86193 4414 ft 204 kts 160°
2026-05-08 04:26 33.27810 139.86974 4279 ft 187 kts 161°
2026-05-08 04:26 33.26709 139.87675 4160 ft 176 kts 162°
2026-05-08 04:27 33.25631 139.88356 4057 ft 174 kts 162°
2026-05-08 04:27 33.24583 139.89030 3954 ft 161 kts 160°
2026-05-08 04:27 33.23635 139.89646 3840 ft 155 kts 161°
2026-05-08 04:27 33.22689 139.90249 3662 ft 152 kts 162°
2026-05-08 04:28 33.21758 139.90834 3469 ft 153 kts 163°
2026-05-08 04:28 33.20821 139.91429 3276 ft 152 kts 162°
2026-05-08 04:28 33.19905 139.92009 3081 ft 148 kts 166°
2026-05-08 04:28 33.18965 139.92320 2887 ft 139 kts 182°
2026-05-08 04:29 33.18064 139.92342 2715 ft 133 kts 194°
2026-05-08 04:29 33.17242 139.92128 2539 ft 108 kts 205°
2026-05-08 04:29 33.16606 139.91787 2397 ft 97 kts 214°
2026-05-08 04:29 33.16050 139.91335 2277 ft 96 kts 222°
2026-05-08 04:30 33.15585 139.90793 2159 ft 96 kts 229°
2026-05-08 04:30 33.15197 139.90144 2036 ft 96 kts 237°
2026-05-08 04:30 33.14911 139.89431 1911 ft 97 kts 245°
2026-05-08 04:30 33.14680 139.88678 1783 ft 96 kts 243°
2026-05-08 04:31 33.14446 139.87939 1661 ft 96 kts 244°
2026-05-08 04:31 33.14205 139.87183 1531 ft 102 kts 243°
2026-05-08 04:31 33.13949 139.86368 1396 ft 103 kts 244°
2026-05-08 04:31 33.13701 139.85579 1265 ft 102 kts 244°
2026-05-08 04:32 33.13460 139.84802 1125 ft 97 kts 244°
2026-05-08 04:32 33.13208 139.84009 985 ft 106 kts 245°
2026-05-08 04:32 33.12960 139.83194 896 ft 100 kts 246°
2026-05-08 04:32 33.12762 139.82478 777 ft 85 kts 243°
2026-05-08 04:33 33.12545 139.81846 571 ft 84 kts 240°
2026-05-08 04:33 33.12327 139.81189 461 ft 86 kts 241°
2026-05-08 04:33 33.12120 139.80494 390 ft 94 kts 241°
2026-05-08 04:33 33.11875 139.79752 325 ft 92 kts 246°
2026-05-08 04:34 33.11707 139.79218 286 ft 39 kts 250°
2026-05-08 04:34 33.11633 139.78982 294 ft 23 kts 251°
2026-05-08 04:34 33.11587 139.78842 293 ft 14 kts 249°
2026-05-08 04:34 33.11557 139.78746 294 ft 12 kts 249°
2026-05-08 04:35 33.11526 139.78641 294 ft 14 kts 250°
2026-05-08 04:35 33.11487 139.78521 292 ft 15 kts 248°
2026-05-08 04:35 33.11461 139.78431 292 ft 9 kts 250°
2026-05-08 04:35 33.11470 139.78371 289 ft 8 kts 311°
2026-05-08 04:36 33.11516 139.78334 290 ft 7 kts 321°
2026-05-08 04:36 33.11530 139.78298 290 ft 3 kts 268°
2026-05-08 04:36 33.11529 139.78286 289 ft 0 kts 256°
2026-05-08 04:36 33.11523 139.78265 288 ft 2 kts 250°
2026-05-08 04:37 33.11522 139.78250 290 ft 4 kts 287°
2026-05-08 04:37 33.11526 139.78245 288 ft 1 kts 332°
2026-05-08 04:37 33.11545 139.78235 288 ft 4 kts 340°
2026-05-08 04:37 33.11555 139.78231 290 ft 0 kts 339°